sat.trackr.live / text

‹ back to catalog

STARLINK-34169

NORAD 63999 · 2025-101F

PAYLOAD ACTIVE UNKNOWN

§ Identity

Operator
Country
US
Launch date
2025-05-14
Launch site
AFETR
Launch vehicle
Mass (kg)
RCS (m²)

Purposes: comms

External: N2YO · Heavens-Above · Gunter

§ Orbital elements

Epoch: 2026-09-20T12:25:39.102816Z

Period
94.27 min
Inclination
43.0044°
Eccentricity
0.0000999
Mean motion
15.27587232 rev/d
Perigee alt
482.3 km
Apogee alt
483.7 km
Semi-major
6,861.2 km
B*
3.5971e-4
RAAN
337.5095°
Arg perigee
272.8079°
Mean anomaly
87.2658°
Rev number
7,685

§ Raw data

STARLINK-341691 63999U 25101F   26263.51781369  .00009651  00000+0  35971-3 0  99922 63999  43.0044 337.5095 0000999 272.8079  87.2658 15.27587232 76851

JSON: /api/v1/satellites/63999 · /tle

For live sub-satellite position, see the globe view (requires WebGL).

§ Visibility from observer

Set your observer location to see the next 7 days of passes ≥ 10°. The values pass through the URL so the page stays shareable.

No JS? Fill the form by hand. The geolocation button needs JavaScript.